Time,TemperatureF,DewpointF,PressureIn,WindDirection,WindDirectionDegrees,WindSpeedMPH,WindSpeedGustMPH,Humidity,HourlyPrecipIn,Conditions,Clouds,dailyrainin,SoftwareType,DateUTC
2013-08-01 00:01:00,69.4,51.1,29.97,SW,225,4.0,4.9,52,0.00,,---,0.00,VWS V14.01,2013-08-01 04:01:00,
2013-08-01 00:02:00,69.4,51.1,29.97,SW,225,3.1,4.9,52,0.00,,---,0.00,VWS V14.01,2013-08-01 04:02:00,
2013-08-01 00:07:00,69.4,51.1,29.97,SW,225,4.9,4.9,52,0.00,,---,0.00,VWS V14.01,2013-08-01 04:07:00,
2013-08-01 00:12:00,69.3,50.9,29.97,SSW,202,2.2,4.0,52,0.00,,---,0.00,VWS V14.01,2013-08-01 04:12:00,
2013-08-01 00:17:00,69.1,50.7,29.97,West,270,3.1,3.6,52,0.00,,---,0.00,VWS V14.01,2013-08-01 04:17:00,
2013-08-01 00:22:00,69.1,50.7,29.97,South,180,6.3,6.3,52,0.00,,---,0.00,VWS V14.01,2013-08-01 04:22:00,
2013-08-01 00:27:00,69.1,50.7,29.97,South,180,0.0,6.3,52,0.00,,---,0.00,VWS V14.01,2013-08-01 04:27:00,
2013-08-01 00:32:00,69.3,50.4,29.97,SW,225,3.1,4.0,51,0.00,,---,0.00,VWS V14.01,2013-08-01 04:32:00,
2013-08-01 00:37:00,69.3,50.4,29.97,SSW,202,5.8,5.8,51,0.00,,---,0.00,VWS V14.01,2013-08-01 04:37:00,
2013-08-01 00:42:00,69.3,50.4,29.97,South,180,3.1,6.3,51,0.00,,---,0.00,VWS V14.01,2013-08-01 04:42:00,
2013-08-01 00:47:00,69.3,50.4,29.97,South,180,2.7,4.0,51,0.00,,---,0.00,VWS V14.01,2013-08-01 04:47:00,
2013-08-01 00:52:00,69.3,50.4,29.97,South,180,2.7,5.4,51,0.00,,---,0.00,VWS V14.01,2013-08-01 04:52:00,
2013-08-01 00:57:00,69.3,50.4,29.97,West,270,2.2,2.2,51,0.00,,---,0.00,VWS V14.01,2013-08-01 04:57:00,
2013-08-01 01:02:00,69.3,50.4,29.97,SW,225,3.1,8.1,51,0.00,,---,0.00,VWS V14.01,2013-08-01 05:02:00,
2013-08-01 01:07:00,69.3,50.4,29.97,East,90,3.6,3.6,51,0.00,,---,0.00,VWS V14.01,2013-08-01 05:07:00,
2013-08-01 01:12:00,69.3,50.4,29.97,SW,225,2.2,3.6,51,0.00,,---,0.00,VWS V14.01,2013-08-01 05:12:00,
2013-08-01 01:17:00,69.3,50.9,29.97,South,180,4.0,4.0,52,0.00,,---,0.00,VWS V14.01,2013-08-01 05:17:00,
2013-08-01 01:22:00,69.3,51.4,29.97,ESE,112,2.2,2.2,53,0.00,,---,0.00,VWS V14.01,2013-08-01 05:22:00,
2013-08-01 01:27:00,69.3,51.9,29.94,SW,225,4.9,4.9,54,0.00,,---,0.00,VWS V14.01,2013-08-01 05:27:00,
2013-08-01 01:32:00,69.1,51.8,29.94,SW,225,3.1,3.1,54,0.00,,---,0.00,VWS V14.01,2013-08-01 05:32:00,
2013-08-01 01:37:00,68.9,52.1,29.94,SW,225,8.3,8.3,55,0.00,,---,0.00,VWS V14.01,2013-08-01 05:37:00,
2013-08-01 01:42:00,68.7,52.9,29.94,SSW,202,11.4,11.4,57,0.00,,---,0.00,VWS V14.01,2013-08-01 05:42:00,
2013-08-01 01:47:00,68.7,53.8,29.94,SSW,202,11.4,11.4,59,0.00,,---,0.00,VWS V14.01,2013-08-01 05:47:00,
2013-08-01 01:52:00,68.5,54.1,29.94,SW,225,5.8,5.8,60,0.00,,---,0.00,VWS V14.01,2013-08-01 05:52:00,
2013-08-01 01:57:00,68.4,54.8,29.94,South,180,3.6,3.6,62,0.00,,---,0.00,VWS V14.01,2013-08-01 05:57:00,
2013-08-01 02:03:00,68.2,55.1,29.94,South,180,3.6,3.6,63,0.00,,---,0.00,VWS V14.01,2013-08-01 06:03:00,
2013-08-01 02:08:00,68.0,55.8,29.94,South,180,5.8,5.8,65,0.00,,---,0.00,VWS V14.01,2013-08-01 06:08:00,
2013-08-01 02:13:00,67.8,56.9,29.91,South,180,5.8,5.8,68,0.00,,---,0.00,VWS V14.01,2013-08-01 06:13:00,
2013-08-01 02:18:00,67.6,57.1,29.91,South,180,5.8,5.8,69,0.00,,---,0.00,VWS V14.01,2013-08-01 06:18:00,
2013-08-01 02:23:00,67.6,57.9,29.91,SW,225,0.0,0.0,71,0.00,,---,0.00,VWS V14.01,2013-08-01 06:23:00,
2013-08-01 02:27:00,67.5,58.5,29.91,SW,225,0.0,0.0,73,0.00,,---,0.00,VWS V14.01,2013-08-01 06:27:00,
2013-08-01 02:32:00,67.6,59.4,29.91,South,180,2.7,2.7,75,0.00,,---,0.00,VWS V14.01,2013-08-01 06:32:00,
2013-08-01 02:37:00,67.6,60.2,29.91,South,180,5.4,5.4,77,0.00,,---,0.00,VWS V14.01,2013-08-01 06:37:00,
2013-08-01 02:42:00,67.6,60.5,29.91,South,180,2.7,2.7,78,0.00,,---,0.00,VWS V14.01,2013-08-01 06:42:00,
2013-08-01 02:48:00,67.6,60.9,29.91,SW,225,3.6,4.9,79,0.00,,---,0.00,VWS V14.01,2013-08-01 06:48:00,
2013-08-01 02:53:00,67.6,61.3,29.91,SW,225,11.4,11.4,80,0.00,,---,0.00,VWS V14.01,2013-08-01 06:53:00,
2013-08-01 02:58:00,67.6,61.3,29.91,SW,225,5.4,5.4,80,0.00,,---,0.00,VWS V14.01,2013-08-01 06:58:00,
2013-08-01 03:03:00,67.6,61.3,29.91,SW,225,4.0,4.0,80,0.00,,---,0.00,VWS V14.01,2013-08-01 07:03:00,
2013-08-01 03:08:00,67.5,61.4,29.91,ESE,112,3.6,6.3,81,0.00,,---,0.00,VWS V14.01,2013-08-01 07:08:00,
2013-08-01 03:13:00,67.3,61.6,29.91,South,180,5.4,5.4,82,0.00,,---,0.00,VWS V14.01,2013-08-01 07:13:00,
2013-08-01 03:17:00,67.3,62.0,29.91,SE,135,3.6,6.3,83,0.00,,---,0.00,VWS V14.01,2013-08-01 07:17:00,
2013-08-01 03:22:00,67.3,62.3,29.91,SW,225,3.1,9.6,84,0.00,,---,0.00,VWS V14.01,2013-08-01 07:22:00,
2013-08-01 03:27:00,67.3,62.6,29.91,SSW,202,2.2,4.9,85,0.00,,---,0.00,VWS V14.01,2013-08-01 07:27:00,
2013-08-01 03:32:00,67.3,63.0,29.91,South,180,2.2,6.3,86,0.00,,---,0.00,VWS V14.01,2013-08-01 07:32:00,
2013-08-01 03:37:00,67.1,63.1,29.91,SE,135,9.6,9.6,87,0.00,,---,0.00,VWS V14.01,2013-08-01 07:37:00,
2013-08-01 03:42:00,67.1,63.1,29.88,South,180,5.4,6.3,87,0.00,,---,0.00,VWS V14.01,2013-08-01 07:42:00,
2013-08-01 03:48:00,66.9,63.3,29.88,SSW,202,4.0,4.0,88,0.00,,---,0.00,VWS V14.01,2013-08-01 07:48:00,
2013-08-01 03:53:00,66.7,63.1,29.88,SSW,202,4.0,4.5,88,0.00,,---,0.00,VWS V14.01,2013-08-01 07:53:00,
2013-08-01 03:58:00,66.7,63.4,29.88,South,180,4.0,4.0,89,0.00,,---,0.00,VWS V14.01,2013-08-01 07:58:00,
2013-08-01 04:03:00,66.7,63.4,29.88,SW,225,3.6,4.0,89,0.00,,---,0.00,VWS V14.01,2013-08-01 08:03:00,
2013-08-01 04:08:00,66.9,63.9,29.88,SW,225,3.1,5.4,90,0.00,,---,0.00,VWS V14.01,2013-08-01 08:08:00,
2013-08-01 04:13:00,66.9,63.9,29.91,WSW,248,0.0,4.0,90,0.00,,---,0.00,VWS V14.01,2013-08-01 08:13:00,
2013-08-01 04:18:00,66.9,63.9,29.91,SW,225,3.6,7.2,90,0.00,,---,0.00,VWS V14.01,2013-08-01 08:18:00,
2013-08-01 04:23:00,66.9,63.9,29.88,SW,225,5.4,5.8,90,0.00,,---,0.00,VWS V14.01,2013-08-01 08:23:00,
2013-08-01 04:28:00,66.9,63.9,29.88,SW,225,5.8,5.8,90,0.00,,---,0.00,VWS V14.01,2013-08-01 08:28:00,
2013-08-01 04:33:00,66.9,63.9,29.88,South,180,4.0,4.0,90,0.00,,---,0.00,VWS V14.01,2013-08-01 08:33:00,
2013-08-01 04:38:00,66.9,63.9,29.88,South,180,3.1,4.9,90,0.00,,---,0.00,VWS V14.01,2013-08-01 08:38:00,
2013-08-01 04:43:00,66.9,63.9,29.88,South,180,3.1,5.8,90,0.00,,---,0.00,VWS V14.01,2013-08-01 08:43:00,
2013-08-01 04:48:00,66.7,63.7,29.88,SW,225,4.9,5.4,90,0.00,,---,0.00,VWS V14.01,2013-08-01 08:48:00,
2013-08-01 04:53:00,66.6,63.5,29.88,SW,225,3.1,3.1,90,0.00,,---,0.00,VWS V14.01,2013-08-01 08:53:00,
2013-08-01 04:59:00,66.6,63.5,29.88,WSW,248,5.4,6.3,90,0.00,,---,0.00,VWS V14.01,2013-08-01 08:59:00,
2013-08-01 05:04:00,66.4,63.4,29.88,SSW,202,4.9,4.9,90,0.00,,---,0.00,VWS V14.01,2013-08-01 09:04:00,
2013-08-01 05:09:00,66.4,63.4,29.88,SSW,202,6.3,6.3,90,0.00,,---,0.00,VWS V14.01,2013-08-01 09:09:00,
2013-08-01 05:14:00,66.4,63.4,29.88,SW,225,4.0,4.0,90,0.00,,---,0.00,VWS V14.01,2013-08-01 09:14:00,
2013-08-01 05:19:00,66.4,63.4,29.88,South,180,6.3,6.3,90,0.00,,---,0.00,VWS V14.01,2013-08-01 09:19:00,
2013-08-01 05:24:00,66.4,63.4,29.88,SSW,202,0.0,0.0,90,0.00,,---,0.00,VWS V14.01,2013-08-01 09:24:00,
2013-08-01 05:29:00,66.4,63.4,29.88,SW,225,0.0,2.2,90,0.00,,---,0.00,VWS V14.01,2013-08-01 09:29:00,
2013-08-01 05:35:00,66.2,63.2,29.88,South,180,0.0,2.2,90,0.00,,---,0.00,VWS V14.01,2013-08-01 09:35:00,
2013-08-01 05:40:00,66.2,63.2,29.88,South,180,0.0,2.7,90,0.00,,---,0.00,VWS V14.01,2013-08-01 09:40:00,
2013-08-01 05:45:00,66.2,63.2,29.88,SW,225,4.9,4.9,90,0.00,,---,0.00,VWS V14.01,2013-08-01 09:45:00,
2013-08-01 05:50:00,66.2,63.2,29.88,SW,225,5.8,6.7,90,0.00,,---,0.00,VWS V14.01,2013-08-01 09:50:00,
2013-08-01 05:55:00,66.2,63.2,29.88,SW,225,5.4,7.6,90,0.00,,---,0.00,VWS V14.01,2013-08-01 09:55:00,
2013-08-01 06:01:00,66.0,63.0,29.88,South,180,2.7,4.0,90,0.00,,---,0.00,VWS V14.01,2013-08-01 10:01:00,
2013-08-01 06:06:00,66.0,63.0,29.88,NW,315,0.0,0.0,90,0.00,,---,0.00,VWS V14.01,2013-08-01 10:06:00,
2013-08-01 06:11:00,66.0,63.0,29.88,SW,225,0.0,0.0,90,0.00,,---,0.00,VWS V14.01,2013-08-01 10:11:00,
2013-08-01 06:17:00,66.0,63.0,29.88,North,0,2.7,4.5,90,0.00,,---,0.00,VWS V14.01,2013-08-01 10:17:00,
2013-08-01 06:22:00,66.2,62.9,29.88,East,90,2.7,2.7,89,0.00,,---,0.00,VWS V14.01,2013-08-01 10:22:00,
2013-08-01 06:27:00,66.2,63.2,29.88,WNW,292,0.0,5.4,90,0.00,,---,0.00,VWS V14.01,2013-08-01 10:27:00,
2013-08-01 06:32:00,66.4,63.0,29.88,South,180,2.2,7.2,89,0.00,,---,0.00,VWS V14.01,2013-08-01 10:32:00,
2013-08-01 06:38:00,66.4,63.0,29.88,SW,225,3.1,3.6,89,0.00,,---,0.00,VWS V14.01,2013-08-01 10:38:00,
2013-08-01 06:43:00,66.4,63.0,29.88,SSW,202,3.6,3.6,89,0.00,,---,0.00,VWS V14.01,2013-08-01 10:43:00,
2013-08-01 06:48:00,66.4,63.0,29.88,NW,315,0.0,3.1,89,0.00,,---,0.00,VWS V14.01,2013-08-01 10:48:00,
2013-08-01 06:53:00,66.4,63.0,29.88,South,180,4.9,4.9,89,0.00,,---,0.00,VWS V14.01,2013-08-01 10:53:00,
2013-08-01 06:58:00,66.4,63.0,29.88,South,180,0.0,0.0,89,0.00,,---,0.00,VWS V14.01,2013-08-01 10:58:00,
2013-08-01 07:04:00,66.4,63.0,29.88,SW,225,0.0,0.0,89,0.00,,---,0.00,VWS V14.01,2013-08-01 11:04:00,
2013-08-01 07:09:00,66.6,63.2,29.88,SSW,202,0.0,0.0,89,0.00,,---,0.00,VWS V14.01,2013-08-01 11:09:00,
2013-08-01 07:14:00,66.6,63.2,29.88,South,180,0.0,0.0,89,0.00,,---,0.00,VWS V14.01,2013-08-01 11:14:00,
2013-08-01 07:19:00,66.6,63.2,29.88,SSW,202,0.0,0.0,89,0.00,,---,0.00,VWS V14.01,2013-08-01 11:19:00,
2013-08-01 07:25:00,66.7,63.4,29.88,SSE,158,0.0,0.0,89,0.00,,---,0.00,VWS V14.01,2013-08-01 11:25:00,
2013-08-01 07:30:00,66.9,63.6,29.88,SW,225,0.0,3.1,89,0.00,,---,0.00,VWS V14.01,2013-08-01 11:30:00,
2013-08-01 07:35:00,66.9,63.6,29.88,East,90,0.0,3.6,89,0.00,,---,0.00,VWS V14.01,2013-08-01 11:35:00,
2013-08-01 07:40:00,66.9,63.6,29.91,West,270,0.0,0.0,89,0.21,,---,0.21,VWS V14.01,2013-08-01 11:40:00,
2013-08-01 07:45:00,66.9,63.6,29.91,North,0,0.0,0.0,89,0.21,,---,0.21,VWS V14.01,2013-08-01 11:45:00,
2013-08-01 07:50:00,66.9,63.6,29.91,SW,225,0.0,0.0,89,0.21,,---,0.21,VWS V14.01,2013-08-01 11:50:00,
2013-08-01 07:55:00,66.9,63.6,29.88,South,180,3.6,3.6,89,0.21,,---,0.21,VWS V14.01,2013-08-01 11:55:00,
2013-08-01 08:00:00,67.1,63.8,29.88,NW,315,0.0,0.0,89,0.21,,---,0.21,VWS V14.01,2013-08-01 12:00:00,
2013-08-01 08:05:00,66.9,63.6,29.88,SW,225,0.0,2.7,89,0.21,,---,0.21,VWS V14.01,2013-08-01 12:05:00,
2013-08-01 08:11:00,66.9,63.6,29.91,SE,135,2.7,2.7,89,0.21,,---,0.21,VWS V14.01,2013-08-01 12:11:00,
2013-08-01 08:16:00,66.9,63.6,29.91,NW,315,0.0,0.0,89,0.21,,---,0.21,VWS V14.01,2013-08-01 12:16:00,
2013-08-01 08:21:00,66.9,63.6,29.91,SW,225,2.7,3.6,89,0.21,,---,0.21,VWS V14.01,2013-08-01 12:21:00,
2013-08-01 08:26:00,66.9,63.6,29.91,SW,225,4.0,4.0,89,0.21,,---,0.21,VWS V14.01,2013-08-01 12:26:00,
2013-08-01 08:31:00,67.1,63.8,29.91,NW,315,2.2,2.2,89,0.21,,---,0.21,VWS V14.01,2013-08-01 12:31:00,
2013-08-01 08:36:00,67.3,64.2,29.91,North,0,4.5,4.5,90,0.21,,---,0.21,VWS V14.01,2013-08-01 12:36:00,
2013-08-01 08:42:00,67.5,64.4,29.91,SSW,202,2.7,5.4,90,0.00,,---,0.21,VWS V14.01,2013-08-01 12:42:00,
2013-08-01 08:47:00,67.5,64.4,29.91,SW,225,5.8,5.8,90,0.00,,---,0.21,VWS V14.01,2013-08-01 12:47:00,
2013-08-01 08:52:00,67.6,64.9,29.91,SW,225,3.1,4.0,91,0.00,,---,0.21,VWS V14.01,2013-08-01 12:52:00,
2013-08-01 08:57:00,67.5,64.8,29.91,SSW,202,4.0,4.0,91,0.00,,---,0.21,VWS V14.01,2013-08-01 12:57:00,
2013-08-01 09:02:00,67.8,65.4,29.91,SSE,158,2.7,4.9,92,0.00,,---,0.21,VWS V14.01,2013-08-01 13:02:00,
2013-08-01 09:08:00,67.6,65.2,29.91,NNW,338,3.1,5.8,92,0.00,,---,0.21,VWS V14.01,2013-08-01 13:08:00,
2013-08-01 09:13:00,67.8,65.7,29.91,NE,45,2.2,3.6,93,0.00,,---,0.21,VWS V14.01,2013-08-01 13:13:00,
2013-08-01 09:18:00,67.8,65.7,29.91,West,270,2.7,3.1,93,0.00,,---,0.21,VWS V14.01,2013-08-01 13:18:00,
2013-08-01 09:24:00,67.8,65.7,29.91,SE,135,3.6,3.6,93,0.00,,---,0.21,VWS V14.01,2013-08-01 13:24:00,
2013-08-01 09:29:00,68.2,66.1,29.91,SSE,158,2.7,2.7,93,0.00,,---,0.21,VWS V14.01,2013-08-01 13:29:00,
2013-08-01 09:34:00,68.4,66.3,29.91,NE,45,2.7,4.0,93,0.00,,---,0.21,VWS V14.01,2013-08-01 13:34:00,
2013-08-01 09:39:00,68.4,66.3,29.91,West,270,2.7,2.7,93,0.00,,---,0.21,VWS V14.01,2013-08-01 13:39:00,
2013-08-01 09:45:00,68.2,66.1,29.91,NE,45,3.1,3.1,93,0.00,,---,0.21,VWS V14.01,2013-08-01 13:45:00,
2013-08-01 09:50:00,67.8,65.4,29.91,East,90,3.6,3.6,92,0.00,,---,0.21,VWS V14.01,2013-08-01 13:50:00,
2013-08-01 09:55:00,67.6,65.2,29.91,SE,135,3.1,4.5,92,0.00,,---,0.21,VWS V14.01,2013-08-01 13:55:00,
2013-08-01 10:00:00,67.5,64.8,29.91,SSE,158,0.0,0.0,91,0.00,,---,0.21,VWS V14.01,2013-08-01 14:00:00,
2013-08-01 10:05:00,67.5,64.8,29.91,SW,225,3.6,3.6,91,0.00,,---,0.21,VWS V14.01,2013-08-01 14:05:00,
2013-08-01 10:10:00,67.5,64.4,29.94,NE,45,0.0,2.7,90,0.00,,---,0.21,VWS V14.01,2013-08-01 14:10:00,
2013-08-01 10:15:00,67.6,64.6,29.94,SW,225,0.0,3.1,90,0.00,,---,0.21,VWS V14.01,2013-08-01 14:15:00,
2013-08-01 10:21:00,67.8,64.8,29.94,NE,45,0.0,2.7,90,0.00,,---,0.21,VWS V14.01,2013-08-01 14:21:00,
2013-08-01 10:26:00,68.0,64.6,29.94,SSW,202,0.0,3.1,89,0.00,,---,0.21,VWS V14.01,2013-08-01 14:26:00,
2013-08-01 10:31:00,68.0,64.6,29.94,South,180,0.0,0.0,89,0.00,,---,0.21,VWS V14.01,2013-08-01 14:31:00,
2013-08-01 10:36:00,67.8,64.5,29.94,SE,135,0.0,4.0,89,0.00,,---,0.21,VWS V14.01,2013-08-01 14:36:00,
2013-08-01 10:42:00,67.8,64.5,29.94,SW,225,0.0,3.1,89,0.00,,---,0.21,VWS V14.01,2013-08-01 14:42:00,
2013-08-01 10:47:00,67.6,64.3,29.94,South,180,4.0,5.4,89,0.00,,---,0.21,VWS V14.01,2013-08-01 14:47:00,
2013-08-01 10:52:00,67.8,64.1,29.94,SE,135,0.0,0.0,88,0.00,,---,0.21,VWS V14.01,2013-08-01 14:52:00,
2013-08-01 10:57:00,68.0,64.3,29.94,NE,45,2.7,2.7,88,0.00,,---,0.21,VWS V14.01,2013-08-01 14:57:00,
2013-08-01 11:02:00,68.4,64.7,29.94,NNE,22,0.0,0.0,88,0.00,,---,0.21,VWS V14.01,2013-08-01 15:02:00,
2013-08-01 11:07:00,68.4,64.7,29.94,West,270,3.1,3.1,88,0.00,,---,0.21,VWS V14.01,2013-08-01 15:07:00,
2013-08-01 11:12:00,68.2,64.2,29.94,South,180,0.0,0.0,87,0.00,,---,0.21,VWS V14.01,2013-08-01 15:12:00,
2013-08-01 11:17:00,68.0,64.0,29.94,SE,135,0.0,0.0,87,0.00,,---,0.21,VWS V14.01,2013-08-01 15:17:00,
2013-08-01 11:22:00,67.6,64.0,29.94,NE,45,0.0,0.0,88,0.00,,---,0.21,VWS V14.01,2013-08-01 15:22:00,
2013-08-01 11:28:00,67.6,64.0,29.94,South,180,0.0,0.0,88,0.00,,---,0.21,VWS V14.01,2013-08-01 15:28:00,
2013-08-01 11:33:00,68.4,64.7,29.94,ENE,68,0.0,2.7,88,0.00,,---,0.21,VWS V14.01,2013-08-01 15:33:00,
2013-08-01 11:38:00,69.4,65.7,29.94,WNW,292,2.7,2.7,88,0.00,,---,0.21,VWS V14.01,2013-08-01 15:38:00,
2013-08-01 11:43:00,70.5,66.5,29.94,West,270,2.7,8.7,87,0.00,,---,0.21,VWS V14.01,2013-08-01 15:43:00,
2013-08-01 11:48:00,71.1,65.6,29.94,SE,135,4.5,8.1,83,0.00,,---,0.21,VWS V14.01,2013-08-01 15:48:00,
2013-08-01 11:54:00,71.6,64.4,29.94,NW,315,3.6,3.6,78,0.00,,---,0.21,VWS V14.01,2013-08-01 15:54:00,
2013-08-01 11:59:00,72.9,64.9,29.94,West,270,2.7,3.1,76,0.00,,---,0.21,VWS V14.01,2013-08-01 15:59:00,
2013-08-01 12:04:00,73.9,65.1,29.94,WSW,248,3.6,5.4,74,0.00,,---,0.21,VWS V14.01,2013-08-01 16:04:00,
2013-08-01 12:09:00,72.9,62.5,29.94,West,270,6.3,6.3,70,0.00,,---,0.21,VWS V14.01,2013-08-01 16:09:00,
2013-08-01 12:14:00,72.5,62.6,29.94,West,270,3.6,3.6,71,0.00,,---,0.21,VWS V14.01,2013-08-01 16:14:00,
2013-08-01 12:19:00,71.1,62.0,29.94,NNW,338,2.7,6.3,73,0.00,,---,0.21,VWS V14.01,2013-08-01 16:19:00,
2013-08-01 12:25:00,71.1,63.1,29.94,SE,135,2.7,5.8,76,0.00,,---,0.21,VWS V14.01,2013-08-01 16:25:00,
2013-08-01 12:30:00,71.8,64.6,29.94,NW,315,2.7,2.7,78,0.00,,---,0.21,VWS V14.01,2013-08-01 16:30:00,
2013-08-01 12:35:00,71.8,64.2,29.94,West,270,5.4,5.4,77,0.00,,---,0.21,VWS V14.01,2013-08-01 16:35:00,
2013-08-01 12:40:00,72.0,64.0,29.97,SW,225,4.0,4.0,76,0.00,,---,0.21,VWS V14.01,2013-08-01 16:40:00,
2013-08-01 12:45:00,71.4,63.1,29.97,NW,315,4.0,5.8,75,0.00,,---,0.21,VWS V14.01,2013-08-01 16:45:00,
2013-08-01 12:50:00,71.4,63.1,29.97,North,0,2.7,4.0,75,0.00,,---,0.21,VWS V14.01,2013-08-01 16:50:00,
2013-08-01 12:55:00,71.4,63.5,29.97,NNW,338,2.2,4.5,76,0.00,,---,0.21,VWS V14.01,2013-08-01 16:55:00,
2013-08-01 13:00:00,71.4,63.8,29.97,ESE,112,2.2,4.0,77,0.00,,---,0.21,VWS V14.01,2013-08-01 17:00:00,
2013-08-01 13:05:00,72.9,65.6,29.97,South,180,5.4,6.3,78,0.00,,---,0.21,VWS V14.01,2013-08-01 17:05:00,
2013-08-01 13:11:00,73.4,64.6,29.94,NE,45,2.7,4.9,74,0.00,,---,0.21,VWS V14.01,2013-08-01 17:11:00,
2013-08-01 13:16:00,73.8,64.2,29.94,WNW,292,4.9,4.9,72,0.00,,---,0.21,VWS V14.01,2013-08-01 17:16:00,
2013-08-01 13:21:00,74.1,64.5,29.94,NNE,22,3.1,3.1,72,0.00,,---,0.21,VWS V14.01,2013-08-01 17:21:00,
2013-08-01 13:26:00,73.0,62.3,29.97,South,180,2.2,2.2,69,0.00,,---,0.21,VWS V14.01,2013-08-01 17:26:00,
2013-08-01 13:31:00,74.1,63.7,29.97,WNW,292,2.2,8.1,70,0.00,,---,0.21,VWS V14.01,2013-08-01 17:31:00,
2013-08-01 13:36:00,72.9,62.1,29.97,South,180,5.4,5.4,69,0.00,,---,0.21,VWS V14.01,2013-08-01 17:36:00,
2013-08-01 13:41:00,73.4,63.0,29.97,South,180,2.7,2.7,70,0.00,,---,0.21,VWS V14.01,2013-08-01 17:41:00,
2013-08-01 13:46:00,73.4,63.4,29.97,SW,225,5.4,5.4,71,0.00,,---,0.21,VWS V14.01,2013-08-01 17:46:00,
2013-08-01 13:51:00,73.6,62.4,29.97,NW,315,6.3,6.3,68,0.00,,---,0.21,VWS V14.01,2013-08-01 17:51:00,
2013-08-01 13:56:00,73.8,61.3,29.97,North,0,3.6,11.4,65,0.00,,---,0.21,VWS V14.01,2013-08-01 17:56:00,
2013-08-01 14:02:00,73.9,60.6,29.97,SW,225,3.6,4.5,63,0.00,,---,0.21,VWS V14.01,2013-08-01 18:02:00,
2013-08-01 14:07:00,74.5,60.6,29.97,North,0,0.0,11.0,62,0.00,,---,0.21,VWS V14.01,2013-08-01 18:07:00,
2013-08-01 14:12:00,74.1,58.9,29.97,SW,225,3.1,3.1,59,0.00,,---,0.21,VWS V14.01,2013-08-01 18:12:00,
2013-08-01 14:17:00,75.2,59.9,29.97,West,270,8.3,8.3,59,0.00,,---,0.21,VWS V14.01,2013-08-01 18:17:00,
2013-08-01 14:22:00,75.2,59.9,29.97,ESE,112,2.7,2.7,59,0.00,,---,0.21,VWS V14.01,2013-08-01 18:22:00,
2013-08-01 14:27:00,75.2,56.9,29.97,West,270,2.2,2.7,53,0.00,,---,0.21,VWS V14.01,2013-08-01 18:27:00,
2013-08-01 14:33:00,74.8,57.1,29.97,WNW,292,2.7,3.6,54,0.00,,---,0.21,VWS V14.01,2013-08-01 18:33:00,
2013-08-01 14:38:00,75.7,56.3,29.97,South,180,3.1,5.4,51,0.00,,---,0.21,VWS V14.01,2013-08-01 18:38:00,
2013-08-01 14:44:00,75.7,54.1,29.97,NW,315,0.0,4.5,47,0.00,,---,0.21,VWS V14.01,2013-08-01 18:44:00,
2013-08-01 14:49:00,76.5,57.0,29.97,NW,315,3.6,3.6,51,0.00,,---,0.21,VWS V14.01,2013-08-01 18:49:00,
2013-08-01 14:54:00,76.1,56.1,29.97,SE,135,7.6,7.6,50,0.00,,---,0.21,VWS V14.01,2013-08-01 18:54:00,
2013-08-01 14:59:00,75.9,56.5,29.97,NNW,338,3.6,4.0,51,0.00,,---,0.21,VWS V14.01,2013-08-01 18:59:00,
2013-08-01 15:04:00,76.3,56.8,29.97,SE,135,2.7,3.6,51,0.00,,---,0.21,VWS V14.01,2013-08-01 19:04:00,
2013-08-01 15:09:00,76.3,55.2,29.97,NE,45,2.7,3.1,48,0.00,,---,0.21,VWS V14.01,2013-08-01 19:09:00,
2013-08-01 15:14:00,75.9,54.3,29.97,NNE,22,0.0,0.0,47,0.00,,---,0.21,VWS V14.01,2013-08-01 19:14:00,
2013-08-01 15:19:00,76.1,54.4,29.97,SSE,158,2.7,6.3,47,0.00,,---,0.21,VWS V14.01,2013-08-01 19:19:00,
2013-08-01 15:25:00,76.6,56.1,29.97,SW,225,3.6,4.9,49,0.00,,---,0.21,VWS V14.01,2013-08-01 19:25:00,
2013-08-01 15:30:00,76.1,53.8,29.97,South,180,3.1,4.0,46,0.00,,---,0.21,VWS V14.01,2013-08-01 19:30:00,
2013-08-01 15:35:00,76.6,57.7,29.97,South,180,4.0,4.0,52,0.00,,---,0.21,VWS V14.01,2013-08-01 19:35:00,
2013-08-01 15:40:00,76.3,54.0,29.97,NE,45,2.7,2.7,46,0.00,,---,0.21,VWS V14.01,2013-08-01 19:40:00,
2013-08-01 15:45:00,75.9,53.7,29.97,SSE,158,0.0,2.2,46,0.00,,---,0.21,VWS V14.01,2013-08-01 19:45:00,
2013-08-01 15:50:00,76.6,55.5,29.97,West,270,3.1,3.1,48,0.00,,---,0.21,VWS V14.01,2013-08-01 19:50:00,
2013-08-01 15:55:00,75.9,54.3,29.97,SE,135,3.1,4.0,47,0.00,,---,0.21,VWS V14.01,2013-08-01 19:55:00,
2013-08-01 16:00:00,75.6,52.8,29.97,SE,135,0.0,3.1,45,0.00,,---,0.21,VWS V14.01,2013-08-01 20:00:00,
2013-08-01 16:06:00,76.1,55.0,29.97,South,180,3.1,3.6,48,0.00,,---,0.21,VWS V14.01,2013-08-01 20:06:00,
2013-08-01 16:11:00,75.9,52.5,29.97,NW,315,3.6,3.6,44,0.00,,---,0.21,VWS V14.01,2013-08-01 20:11:00,
2013-08-01 16:16:00,76.1,52.6,29.97,SE,135,3.6,3.6,44,0.00,,---,0.21,VWS V14.01,2013-08-01 20:16:00,
2013-08-01 16:21:00,76.6,54.9,29.97,NW,315,3.6,3.6,47,0.00,,---,0.21,VWS V14.01,2013-08-01 20:21:00,
2013-08-01 16:26:00,77.2,54.2,29.97,SW,225,0.0,0.0,45,0.00,,---,0.21,VWS V14.01,2013-08-01 20:26:00,
2013-08-01 16:31:00,76.5,51.7,29.97,NE,45,0.0,0.0,42,0.00,,---,0.21,VWS V14.01,2013-08-01 20:31:00,
2013-08-01 16:36:00,75.0,51.0,29.97,West,270,3.1,4.0,43,0.00,,---,0.21,VWS V14.01,2013-08-01 20:36:00,
2013-08-01 16:41:00,74.8,50.9,29.97,NE,45,2.2,3.1,43,0.00,,---,0.21,VWS V14.01,2013-08-01 20:41:00,
2013-08-01 16:46:00,74.5,50.5,29.97,North,0,2.2,2.7,43,0.00,,---,0.21,VWS V14.01,2013-08-01 20:46:00,
2013-08-01 16:51:00,74.3,51.6,29.97,West,270,0.0,4.0,45,0.00,,---,0.21,VWS V14.01,2013-08-01 20:51:00,
2013-08-01 16:56:00,74.1,53.8,29.97,SE,135,5.4,5.4,49,0.00,,---,0.21,VWS V14.01,2013-08-01 20:56:00,
2013-08-01 17:01:00,73.8,55.1,29.97,SW,225,3.1,3.6,52,0.00,,---,0.21,VWS V14.01,2013-08-01 21:01:00,
2013-08-01 17:06:00,73.4,56.3,29.97,West,270,2.2,2.2,55,0.00,,---,0.21,VWS V14.01,2013-08-01 21:06:00,
2013-08-01 17:11:00,73.4,57.7,29.97,North,0,0.0,0.0,58,0.00,,---,0.21,VWS V14.01,2013-08-01 21:11:00,
2013-08-01 17:16:00,73.2,58.0,29.97,NE,45,2.7,2.7,59,0.00,,---,0.21,VWS V14.01,2013-08-01 21:16:00,
2013-08-01 17:21:00,73.2,59.4,29.97,SE,135,0.0,0.0,62,0.00,,---,0.21,VWS V14.01,2013-08-01 21:21:00,
2013-08-01 17:26:00,73.2,59.9,29.97,NE,45,2.7,2.7,63,0.00,,---,0.21,VWS V14.01,2013-08-01 21:26:00,
2013-08-01 17:31:00,73.4,60.5,29.97,North,0,4.9,5.4,64,0.00,,---,0.21,VWS V14.01,2013-08-01 21:31:00,
2013-08-01 17:37:00,73.0,61.0,29.97,South,180,3.1,7.2,66,0.00,,---,0.21,VWS V14.01,2013-08-01 21:37:00,
2013-08-01 17:42:00,72.9,60.8,29.97,West,270,0.0,4.0,66,0.00,,---,0.21,VWS V14.01,2013-08-01 21:42:00,
2013-08-01 17:47:00,72.1,60.6,29.97,SE,135,3.1,3.1,67,0.00,,---,0.21,VWS V14.01,2013-08-01 21:47:00,
2013-08-01 17:52:00,71.6,60.9,29.97,SW,225,3.1,3.6,69,0.00,,---,0.21,VWS V14.01,2013-08-01 21:52:00,
2013-08-01 17:57:00,71.2,61.0,29.97,South,180,0.0,0.0,70,0.00,,---,0.21,VWS V14.01,2013-08-01 21:57:00,
2013-08-01 18:02:00,70.9,61.0,29.97,SE,135,0.0,4.0,71,0.00,,---,0.21,VWS V14.01,2013-08-01 22:02:00,
2013-08-01 18:07:00,70.9,61.0,29.97,NW,315,0.0,4.9,71,0.00,,---,0.21,VWS V14.01,2013-08-01 22:07:00,
2013-08-01 18:12:00,71.1,61.6,29.97,WNW,292,2.2,2.7,72,0.00,,---,0.21,VWS V14.01,2013-08-01 22:12:00,
2013-08-01 18:17:00,71.6,62.1,29.97,SW,225,0.0,0.0,72,0.00,,---,0.21,VWS V14.01,2013-08-01 22:17:00,
2013-08-01 18:22:00,71.6,62.5,29.97,SSW,202,0.0,0.0,73,0.00,,---,0.21,VWS V14.01,2013-08-01 22:22:00,
2013-08-01 18:27:00,71.4,62.7,29.97,South,180,3.1,3.1,74,0.00,,---,0.21,VWS V14.01,2013-08-01 22:27:00,
2013-08-01 18:32:00,71.2,62.5,29.97,SW,225,2.7,2.7,74,0.00,,---,0.21,VWS V14.01,2013-08-01 22:32:00,
2013-08-01 18:37:00,71.2,61.8,29.97,NW,315,0.0,0.0,72,0.00,,---,0.21,VWS V14.01,2013-08-01 22:37:00,
2013-08-01 18:42:00,70.7,61.2,30.00,NW,315,4.0,4.0,72,0.00,,---,0.21,VWS V14.01,2013-08-01 22:42:00,
2013-08-01 18:47:00,70.7,61.6,30.00,South,180,2.7,3.1,73,0.00,,---,0.21,VWS V14.01,2013-08-01 22:47:00,
2013-08-01 18:52:00,71.4,63.1,30.00,South,180,2.7,2.7,75,0.00,,---,0.21,VWS V14.01,2013-08-01 22:52:00,
2013-08-01 18:57:00,71.8,63.4,29.97,NW,315,4.9,4.9,75,0.00,,---,0.21,VWS V14.01,2013-08-01 22:57:00,
2013-08-01 19:02:00,72.3,63.2,29.97,NNE,22,0.0,5.4,73,0.00,,---,0.21,VWS V14.01,2013-08-01 23:02:00,
2013-08-01 19:07:00,72.7,63.1,29.97,North,0,0.0,2.2,72,0.00,,---,0.21,VWS V14.01,2013-08-01 23:07:00,
2013-08-01 19:12:00,72.5,62.2,30.00,South,180,4.0,4.0,70,0.00,,---,0.21,VWS V14.01,2013-08-01 23:12:00,
2013-08-01 19:17:00,71.8,61.5,30.00,North,0,3.1,3.6,70,0.00,,---,0.21,VWS V14.01,2013-08-01 23:17:00,
2013-08-01 19:22:00,71.6,61.7,30.00,West,270,2.7,3.6,71,0.00,,---,0.21,VWS V14.01,2013-08-01 23:22:00,
2013-08-01 19:28:00,71.1,62.0,29.97,North,0,0.0,0.0,73,0.00,,---,0.21,VWS V14.01,2013-08-01 23:28:00,
2013-08-01 19:33:00,70.7,62.0,29.97,WNW,292,0.0,0.0,74,0.00,,---,0.21,VWS V14.01,2013-08-01 23:33:00,
2013-08-01 19:38:00,70.5,62.2,29.97,East,90,2.2,3.1,75,0.00,,---,0.21,VWS V14.01,2013-08-01 23:38:00,
2013-08-01 19:42:00,70.2,62.6,29.97,West,270,0.0,3.6,77,0.00,,---,0.21,VWS V14.01,2013-08-01 23:42:00,
2013-08-01 19:48:00,70.0,63.2,29.97,NW,315,0.0,0.0,79,0.00,,---,0.21,VWS V14.01,2013-08-01 23:48:00,
2013-08-01 19:53:00,69.6,63.5,29.97,NW,315,2.7,4.9,81,0.00,,---,0.21,VWS V14.01,2013-08-01 23:53:00,
2013-08-01 19:58:00,69.4,63.7,29.97,WSW,248,0.0,0.0,82,0.00,,---,0.21,VWS V14.01,2013-08-01 23:58:00,
2013-08-01 20:03:00,69.1,63.7,29.97,WSW,248,0.0,0.0,83,0.00,,---,0.21,VWS V14.01,2013-08-02 00:03:00,
2013-08-01 20:08:00,68.9,63.9,29.97,SW,225,0.0,0.0,84,0.00,,---,0.21,VWS V14.01,2013-08-02 00:08:00,
2013-08-01 20:13:00,68.5,63.9,29.97,South,180,0.0,0.0,85,0.00,,---,0.21,VWS V14.01,2013-08-02 00:13:00,
2013-08-01 20:18:00,68.4,64.0,29.97,South,180,0.0,0.0,86,0.00,,---,0.21,VWS V14.01,2013-08-02 00:18:00,
2013-08-01 20:23:00,68.4,64.3,29.97,East,90,0.0,0.0,87,0.00,,---,0.21,VWS V14.01,2013-08-02 00:23:00,
2013-08-01 20:28:00,68.2,64.5,29.97,SE,135,0.0,0.0,88,0.00,,---,0.21,VWS V14.01,2013-08-02 00:28:00,
2013-08-01 20:33:00,68.0,64.3,29.97,West,270,0.0,0.0,88,0.00,,---,0.21,VWS V14.01,2013-08-02 00:33:00,
2013-08-01 20:38:00,68.0,64.6,29.97,West,270,0.0,0.0,89,0.00,,---,0.21,VWS V14.01,2013-08-02 00:38:00,
2013-08-01 20:44:00,67.6,64.3,29.97,SSW,202,0.0,0.0,89,0.00,,---,0.21,VWS V14.01,2013-08-02 00:44:00,
2013-08-01 20:49:00,67.6,64.6,29.97,SSW,202,0.0,0.0,90,0.00,,---,0.21,VWS V14.01,2013-08-02 00:49:00,
2013-08-01 20:54:00,67.5,64.4,29.97,South,180,0.0,0.0,90,0.00,,---,0.21,VWS V14.01,2013-08-02 00:54:00,
2013-08-01 20:59:00,67.3,64.2,30.00,South,180,0.0,0.0,90,0.00,,---,0.21,VWS V14.01,2013-08-02 00:59:00,
2013-08-01 21:04:00,66.9,63.9,30.00,South,180,0.0,0.0,90,0.00,,---,0.21,VWS V14.01,2013-08-02 01:04:00,
2013-08-01 21:09:00,66.7,63.7,29.97,South,180,0.0,0.0,90,0.00,,---,0.21,VWS V14.01,2013-08-02 01:09:00,
2013-08-01 21:14:00,66.6,63.5,29.97,SSE,158,0.0,0.0,90,0.00,,---,0.21,VWS V14.01,2013-08-02 01:14:00,
2013-08-01 21:19:00,66.6,63.5,29.97,South,180,0.0,0.0,90,0.00,,---,0.21,VWS V14.01,2013-08-02 01:19:00,
2013-08-01 21:24:00,66.2,63.2,29.97,South,180,0.0,0.0,90,0.00,,---,0.21,VWS V14.01,2013-08-02 01:24:00,
2013-08-01 21:29:00,66.2,63.2,29.97,SE,135,0.0,0.0,90,0.00,,---,0.21,VWS V14.01,2013-08-02 01:29:00,
2013-08-01 21:34:00,65.8,62.8,29.97,SE,135,0.0,0.0,90,0.00,,---,0.21,VWS V14.01,2013-08-02 01:34:00,
2013-08-01 21:39:00,65.7,62.7,29.97,SE,135,0.0,0.0,90,0.00,,---,0.21,VWS V14.01,2013-08-02 01:39:00,
2013-08-01 21:45:00,65.3,62.3,29.97,SE,135,0.0,0.0,90,0.00,,---,0.21,VWS V14.01,2013-08-02 01:45:00,
2013-08-01 21:50:00,65.1,62.1,29.97,SE,135,0.0,0.0,90,0.00,,---,0.21,VWS V14.01,2013-08-02 01:50:00,
2013-08-01 21:55:00,65.1,62.1,29.97,South,180,0.0,0.0,90,0.00,,---,0.21,VWS V14.01,2013-08-02 01:55:00,
2013-08-01 22:00:00,64.9,61.9,29.97,SW,225,0.0,0.0,90,0.00,,---,0.21,VWS V14.01,2013-08-02 02:00:00,
2013-08-01 22:05:00,64.8,61.8,29.97,SW,225,0.0,0.0,90,0.00,,---,0.21,VWS V14.01,2013-08-02 02:05:00,
2013-08-01 22:10:00,64.4,61.4,29.97,SW,225,0.0,0.0,90,0.00,,---,0.21,VWS V14.01,2013-08-02 02:10:00,
2013-08-01 22:15:00,64.4,61.4,29.97,SW,225,0.0,0.0,90,0.00,,---,0.21,VWS V14.01,2013-08-02 02:15:00,
2013-08-01 22:20:00,64.2,61.5,29.97,SW,225,0.0,0.0,91,0.00,,---,0.21,VWS V14.01,2013-08-02 02:20:00,
2013-08-01 22:25:00,64.2,61.5,29.97,SW,225,0.0,0.0,91,0.00,,---,0.21,VWS V14.01,2013-08-02 02:25:00,
2013-08-01 22:30:00,64.2,61.5,29.97,SW,225,0.0,0.0,91,0.00,,---,0.21,VWS V14.01,2013-08-02 02:30:00,
2013-08-01 22:35:00,64.0,61.4,29.97,SW,225,0.0,0.0,91,0.00,,---,0.21,VWS V14.01,2013-08-02 02:35:00,
2013-08-01 22:40:00,63.9,61.2,29.97,SW,225,0.0,0.0,91,0.00,,---,0.21,VWS V14.01,2013-08-02 02:40:00,
2013-08-01 22:45:00,63.7,61.0,29.97,SW,225,0.0,0.0,91,0.00,,---,0.21,VWS V14.01,2013-08-02 02:45:00,
2013-08-01 22:50:00,63.5,60.8,29.97,SW,225,0.0,0.0,91,0.00,,---,0.21,VWS V14.01,2013-08-02 02:50:00,
2013-08-01 22:55:00,63.5,60.8,29.97,SW,225,0.0,0.0,91,0.00,,---,0.21,VWS V14.01,2013-08-02 02:55:00,
2013-08-01 23:00:00,63.5,60.8,29.97,SW,225,0.0,0.0,91,0.00,,---,0.21,VWS V14.01,2013-08-02 03:00:00,
2013-08-01 23:05:00,63.5,60.8,29.97,SW,225,0.0,0.0,91,0.00,,---,0.21,VWS V14.01,2013-08-02 03:05:00,
2013-08-01 23:10:00,63.7,61.0,29.97,South,180,0.0,0.0,91,0.00,,---,0.21,VWS V14.01,2013-08-02 03:10:00,
2013-08-01 23:15:00,63.7,61.0,29.97,SW,225,0.0,0.0,91,0.00,,---,0.21,VWS V14.01,2013-08-02 03:15:00,
2013-08-01 23:20:00,63.7,61.0,29.97,SW,225,0.0,0.0,91,0.00,,---,0.21,VWS V14.01,2013-08-02 03:20:00,
2013-08-01 23:26:00,63.5,60.8,29.97,South,180,0.0,0.0,91,0.00,,---,0.21,VWS V14.01,2013-08-02 03:26:00,
2013-08-01 23:31:00,63.3,60.7,29.97,SW,225,0.0,0.0,91,0.00,,---,0.21,VWS V14.01,2013-08-02 03:31:00,
2013-08-01 23:36:00,63.1,60.5,29.97,South,180,0.0,0.0,91,0.00,,---,0.21,VWS V14.01,2013-08-02 03:36:00,
2013-08-01 23:41:00,63.3,60.7,29.97,SSW,202,0.0,0.0,91,0.00,,---,0.21,VWS V14.01,2013-08-02 03:41:00,
2013-08-01 23:46:00,63.3,60.7,29.97,South,180,0.0,0.0,91,0.00,,---,0.21,VWS V14.01,2013-08-02 03:46:00,
2013-08-01 23:51:00,63.1,60.5,29.97,SSW,202,0.0,0.0,91,0.00,,---,0.21,VWS V14.01,2013-08-02 03:51:00,
2013-08-01 23:56:00,63.1,60.5,29.97,SW,225,0.0,0.0,91,0.00,,---,0.21,VWS V14.01,2013-08-02 03:56:00,